Time,TemperatureF,DewpointF,PressureIn,WindDirection,WindDirectionDegrees,WindSpeedMPH,WindSpeedGustMPH,Humidity,HourlyPrecipIn,Conditions,Clouds,dailyrainin,SolarRadiationWatts/m^2,SoftwareType,DateUTC
2013-04-26 00:04:00,69.8,63.0,30.12,ESE,107,0.0,0.0,79,0.00,,,0.00,0,weatherlink.com 1.10,2013-04-26 04:04:00,
2013-04-26 00:19:00,69.3,63.0,30.13,ESE,107,0.0,0.0,80,0.00,,,0.00,0,weatherlink.com 1.10,2013-04-26 04:19:00,
2013-04-26 00:34:00,69.1,63.0,30.12,ESE,107,0.0,0.0,81,0.00,,,0.00,0,weatherlink.com 1.10,2013-04-26 04:34:00,
2013-04-26 00:49:00,68.8,63.0,30.12,ESE,107,0.0,0.0,82,0.00,,,0.00,0,weatherlink.com 1.10,2013-04-26 04:49:00,
2013-04-26 01:04:00,68.6,63.0,30.12,ESE,107,0.0,0.0,82,0.00,,,0.00,0,weatherlink.com 1.10,2013-04-26 05:04:00,
2013-04-26 01:19:00,68.4,63.0,30.12,ESE,107,0.0,0.0,83,0.00,,,0.00,0,weatherlink.com 1.10,2013-04-26 05:19:00,
2013-04-26 01:34:00,68.4,63.0,30.12,ESE,107,0.0,0.0,84,0.00,,,0.00,0,weatherlink.com 1.10,2013-04-26 05:34:00,
2013-04-26 01:49:00,68.4,63.0,30.12,ESE,107,0.0,0.0,84,0.00,,,0.00,0,weatherlink.com 1.10,2013-04-26 05:49:00,
2013-04-26 02:04:00,68.4,64.0,30.12,ESE,107,0.0,3.0,85,0.00,,,0.00,0,weatherlink.com 1.10,2013-04-26 06:04:00,
2013-04-26 02:19:00,68.1,64.0,30.11,ESE,107,0.0,0.0,85,0.00,,,0.00,0,weatherlink.com 1.10,2013-04-26 06:19:00,
2013-04-26 02:34:00,67.9,64.0,30.11,ESE,107,0.0,0.0,86,0.00,,,0.00,0,weatherlink.com 1.10,2013-04-26 06:34:00,
2013-04-26 02:50:00,67.9,64.0,30.11,ESE,107,0.0,0.0,87,0.00,,,0.00,0,weatherlink.com 1.10,2013-04-26 06:50:00,
2013-04-26 03:06:00,67.9,64.0,30.10,ESE,107,0.0,0.0,87,0.00,,,0.00,0,weatherlink.com 1.10,2013-04-26 07:06:00,
2013-04-26 03:20:00,67.6,63.0,30.10,ESE,107,0.0,1.0,86,0.00,,,0.00,0,weatherlink.com 1.10,2013-04-26 07:20:00,
2013-04-26 03:35:00,67.3,62.0,30.10,ESE,107,0.0,0.0,84,0.00,,,0.00,0,weatherlink.com 1.10,2013-04-26 07:35:00,
2013-04-26 03:50:00,67.3,62.0,30.09,ESE,107,0.0,0.0,83,0.00,,,0.00,0,weatherlink.com 1.10,2013-04-26 07:50:00,
2013-04-26 04:05:00,66.8,61.0,30.09,ESE,107,0.0,0.0,81,0.00,,,0.00,0,weatherlink.com 1.10,2013-04-26 08:05:00,
2013-04-26 04:20:00,66.4,60.0,30.09,ESE,107,0.0,0.0,81,0.00,,,0.00,0,weatherlink.com 1.10,2013-04-26 08:20:00,
2013-04-26 04:35:00,66.0,60.0,30.09,ESE,107,0.0,0.0,80,0.00,,,0.00,0,weatherlink.com 1.10,2013-04-26 08:35:00,
2013-04-26 04:50:00,65.3,59.0,30.10,ESE,107,0.0,0.0,80,0.00,,,0.00,0,weatherlink.com 1.10,2013-04-26 08:50:00,
2013-04-26 05:05:00,64.8,59.0,30.10,ESE,107,0.0,0.0,80,0.00,,,0.00,0,weatherlink.com 1.10,2013-04-26 09:05:00,
2013-04-26 05:21:00,64.3,58.0,30.10,ESE,107,0.0,0.0,80,0.00,,,0.00,0,weatherlink.com 1.10,2013-04-26 09:21:00,
2013-04-26 05:36:00,63.9,58.0,30.10,ESE,107,0.0,0.0,81,0.00,,,0.00,0,weatherlink.com 1.10,2013-04-26 09:36:00,
2013-04-26 05:50:00,63.4,58.0,30.11,ESE,107,0.0,0.0,81,0.00,,,0.00,0,weatherlink.com 1.10,2013-04-26 09:50:00,
2013-04-26 06:07:00,62.7,56.0,30.11,ESE,107,0.0,0.0,80,0.00,,,0.00,0,weatherlink.com 1.10,2013-04-26 10:07:00,
2013-04-26 06:21:00,62.6,56.0,30.12,ESE,107,0.0,0.0,80,0.00,,,0.00,0,weatherlink.com 1.10,2013-04-26 10:21:00,
2013-04-26 06:37:00,62.6,56.0,30.12,ESE,107,0.0,0.0,80,0.00,,,0.00,0,weatherlink.com 1.10,2013-04-26 10:37:00,
2013-04-26 06:52:00,62.3,56.0,30.13,ESE,107,0.0,0.0,80,0.00,,,0.00,5,weatherlink.com 1.10,2013-04-26 10:52:00,
2013-04-26 07:07:00,62.4,56.0,30.13,NNE,13,0.0,1.0,79,0.00,,,0.00,21,weatherlink.com 1.10,2013-04-26 11:07:00,
2013-04-26 07:22:00,63.1,56.0,30.14,NNE,32,0.0,3.0,77,0.00,,,0.00,63,weatherlink.com 1.10,2013-04-26 11:22:00,
2013-04-26 07:37:00,64.0,56.0,30.15,NE,55,0.0,4.0,76,0.00,,,0.00,40,weatherlink.com 1.10,2013-04-26 11:37:00,
2013-04-26 07:52:00,64.7,57.0,30.15,East,80,0.0,4.0,77,0.00,,,0.00,149,weatherlink.com 1.10,2013-04-26 11:52:00,
2013-04-26 08:07:00,65.5,58.0,30.15,NNE,27,0.0,3.0,78,0.00,,,0.00,86,weatherlink.com 1.10,2013-04-26 12:07:00,
2013-04-26 08:22:00,66.3,60.0,30.16,NE,42,1.0,4.0,80,0.00,,,0.00,100,weatherlink.com 1.10,2013-04-26 12:22:00,
2013-04-26 08:37:00,67.3,62.0,30.16,ESE,110,3.0,8.0,82,0.00,,,0.00,118,weatherlink.com 1.10,2013-04-26 12:37:00,
2013-04-26 08:52:00,67.8,63.0,30.17,ENE,75,0.0,6.0,84,0.00,,,0.00,120,weatherlink.com 1.10,2013-04-26 12:52:00,
2013-04-26 09:07:00,68.1,64.0,30.18,East,84,0.0,10.0,85,0.00,,,0.00,137,weatherlink.com 1.10,2013-04-26 13:07:00,
2013-04-26 09:22:00,68.6,64.0,30.18,SE,137,0.0,5.0,85,0.00,,,0.00,172,weatherlink.com 1.10,2013-04-26 13:22:00,
2013-04-26 09:37:00,69.4,64.0,30.18,North,5,0.0,7.0,84,0.00,,,0.00,237,weatherlink.com 1.10,2013-04-26 13:37:00,
2013-04-26 09:53:00,71.5,65.0,30.19,North,5,0.0,5.0,81,0.00,,,0.00,585,weatherlink.com 1.10,2013-04-26 13:53:00,
2013-04-26 10:07:00,73.2,66.0,30.19,NE,36,0.0,8.0,77,0.00,,,0.00,707,weatherlink.com 1.10,2013-04-26 14:07:00,
2013-04-26 10:24:00,73.3,65.0,30.19,ESE,111,4.0,8.0,76,0.00,,,0.00,339,weatherlink.com 1.10,2013-04-26 14:24:00,
2013-04-26 10:39:00,73.9,66.0,30.20,ENE,64,0.0,7.0,76,0.00,,,0.00,234,weatherlink.com 1.10,2013-04-26 14:39:00,
2013-04-26 10:53:00,74.4,66.0,30.21,ESE,104,0.0,7.0,75,0.00,,,0.00,338,weatherlink.com 1.10,2013-04-26 14:53:00,
2013-04-26 11:09:00,75.8,66.0,30.21,ENE,70,0.0,9.0,71,0.00,,,0.00,844,weatherlink.com 1.10,2013-04-26 15:09:00,
2013-04-26 11:24:00,76.3,65.0,30.21,North,360,0.0,8.0,69,0.00,,,0.00,888,weatherlink.com 1.10,2013-04-26 15:24:00,
2013-04-26 11:39:00,76.1,65.0,30.21,East,98,3.0,6.0,68,0.00,,,0.00,320,weatherlink.com 1.10,2013-04-26 15:39:00,
2013-04-26 11:54:00,76.3,65.0,30.21,East,101,0.0,7.0,68,0.00,,,0.00,471,weatherlink.com 1.10,2013-04-26 15:54:00,
2013-04-26 12:08:00,77.2,65.0,30.21,NNE,29,0.0,14.0,66,0.00,,,0.00,926,weatherlink.com 1.10,2013-04-26 16:08:00,
2013-04-26 12:23:00,78.5,65.0,30.21,East,89,2.0,10.0,63,0.00,,,0.00,923,weatherlink.com 1.10,2013-04-26 16:23:00,
2013-04-26 12:39:00,78.8,64.0,30.21,East,94,7.0,7.0,60,0.00,,,0.00,925,weatherlink.com 1.10,2013-04-26 16:39:00,
2013-04-26 12:54:00,79.0,64.0,30.21,East,93,0.0,8.0,60,0.00,,,0.00,962,weatherlink.com 1.10,2013-04-26 16:54:00,
2013-04-26 13:08:00,78.8,64.0,30.20,NNE,32,4.0,15.0,60,0.00,,,0.00,912,weatherlink.com 1.10,2013-04-26 17:08:00,
2013-04-26 13:24:00,78.8,64.0,30.20,SE,128,0.0,11.0,61,0.00,,,0.00,942,weatherlink.com 1.10,2013-04-26 17:24:00,
2013-04-26 13:40:00,78.6,63.0,30.20,ESE,112,1.0,12.0,60,0.00,,,0.00,1013,weatherlink.com 1.10,2013-04-26 17:40:00,
2013-04-26 13:55:00,79.6,64.0,30.20,NE,43,0.0,9.0,59,0.00,,,0.00,461,weatherlink.com 1.10,2013-04-26 17:55:00,
2013-04-26 14:10:00,78.8,64.0,30.20,East,101,2.0,9.0,60,0.00,,,0.00,279,weatherlink.com 1.10,2013-04-26 18:10:00,
2013-04-26 14:25:00,78.8,64.0,30.19,NW,321,0.0,11.0,60,0.00,,,0.00,995,weatherlink.com 1.10,2013-04-26 18:25:00,
2013-04-26 14:40:00,79.4,63.0,30.19,East,89,1.0,9.0,57,0.00,,,0.00,362,weatherlink.com 1.10,2013-04-26 18:40:00,
2013-04-26 14:55:00,78.8,63.0,30.19,NE,38,0.0,9.0,59,0.00,,,0.00,459,weatherlink.com 1.10,2013-04-26 18:55:00,
2013-04-26 15:10:00,78.1,62.0,30.19,NE,44,0.0,9.0,59,0.00,,,0.00,267,weatherlink.com 1.10,2013-04-26 19:10:00,
2013-04-26 15:25:00,77.2,63.0,30.18,ESE,117,4.0,12.0,61,0.00,,,0.00,362,weatherlink.com 1.10,2013-04-26 19:25:00,
2013-04-26 15:40:00,78.1,63.0,30.18,East,82,0.0,10.0,60,0.00,,,0.00,802,weatherlink.com 1.10,2013-04-26 19:40:00,
2013-04-26 15:55:00,78.6,62.0,30.18,SE,138,2.0,14.0,57,0.00,,,0.00,773,weatherlink.com 1.10,2013-04-26 19:55:00,
2013-04-26 16:10:00,78.3,62.0,30.17,NNE,17,0.0,12.0,58,0.00,,,0.00,740,weatherlink.com 1.10,2013-04-26 20:10:00,
2013-04-26 16:25:00,78.6,62.0,30.17,ENE,61,3.0,8.0,57,0.00,,,0.00,729,weatherlink.com 1.10,2013-04-26 20:25:00,
2013-04-26 16:40:00,78.3,61.0,30.17,ESE,109,0.0,10.0,56,0.00,,,0.00,202,weatherlink.com 1.10,2013-04-26 20:40:00,
2013-04-26 16:55:00,77.9,61.0,30.17,ENE,74,0.0,8.0,57,0.00,,,0.00,302,weatherlink.com 1.10,2013-04-26 20:55:00,
2013-04-26 17:10:00,77.0,61.0,30.17,NNE,14,3.0,6.0,58,0.00,,,0.00,243,weatherlink.com 1.10,2013-04-26 21:10:00,
2013-04-26 17:25:00,76.8,61.0,30.17,East,92,0.0,8.0,58,0.00,,,0.00,262,weatherlink.com 1.10,2013-04-26 21:25:00,
2013-04-26 17:40:00,76.7,60.0,30.16,East,100,0.0,8.0,57,0.00,,,0.00,174,weatherlink.com 1.10,2013-04-26 21:40:00,
2013-04-26 17:55:00,75.8,60.0,30.16,East,97,1.0,7.0,58,0.00,,,0.00,396,weatherlink.com 1.10,2013-04-26 21:55:00,
2013-04-26 18:12:00,75.4,59.0,30.16,ESE,103,2.0,9.0,58,0.00,,,0.00,244,weatherlink.com 1.10,2013-04-26 22:12:00,
2013-04-26 18:42:00,74.4,59.0,30.17,East,82,0.0,7.0,58,0.00,,,0.00,56,weatherlink.com 1.10,2013-04-26 22:42:00,
2013-04-26 18:57:00,73.5,59.0,30.16,NNE,16,2.0,8.0,60,0.00,,,0.00,54,weatherlink.com 1.10,2013-04-26 22:57:00,
2013-04-26 19:12:00,72.8,59.0,30.17,ESE,117,1.0,8.0,62,0.00,,,0.00,37,weatherlink.com 1.10,2013-04-26 23:12:00,
2013-04-26 19:27:00,72.3,58.0,30.17,East,101,1.0,7.0,62,0.00,,,0.00,23,weatherlink.com 1.10,2013-04-26 23:27:00,
2013-04-26 19:42:00,71.8,58.0,30.17,ESE,104,0.0,8.0,63,0.00,,,0.00,14,weatherlink.com 1.10,2013-04-26 23:42:00,
2013-04-26 20:12:00,70.6,59.0,30.18,North,360,0.0,6.0,66,0.00,,,0.00,0,weatherlink.com 1.10,2013-04-27 00:12:00,
2013-04-26 20:27:00,69.9,59.0,30.18,NE,44,0.0,4.0,68,0.00,,,0.00,0,weatherlink.com 1.10,2013-04-27 00:27:00,
2013-04-26 20:42:00,69.4,59.0,30.18,NNW,347,0.0,3.0,69,0.00,,,0.00,0,weatherlink.com 1.10,2013-04-27 00:42:00,
2013-04-26 20:56:00,69.1,59.0,30.19,NNW,348,1.0,3.0,71,0.00,,,0.00,0,weatherlink.com 1.10,2013-04-27 00:56:00,
2013-04-26 21:12:00,68.6,59.0,30.20,North,5,0.0,1.0,72,0.00,,,0.00,0,weatherlink.com 1.10,2013-04-27 01:12:00,
2013-04-26 21:26:00,68.3,59.0,30.20,NNE,12,0.0,4.0,73,0.00,,,0.00,0,weatherlink.com 1.10,2013-04-27 01:26:00,
2013-04-26 21:42:00,67.9,60.0,30.20,NNE,12,0.0,3.0,75,0.00,,,0.00,0,weatherlink.com 1.10,2013-04-27 01:42:00,
2013-04-26 21:57:00,67.6,60.0,30.21,NNE,13,0.0,4.0,76,0.00,,,0.00,0,weatherlink.com 1.10,2013-04-27 01:57:00,
2013-04-26 22:12:00,67.3,60.0,30.21,North,355,0.0,3.0,77,0.00,,,0.00,0,weatherlink.com 1.10,2013-04-27 02:12:00,
2013-04-26 22:27:00,67.1,60.0,30.21,NE,44,0.0,4.0,77,0.00,,,0.00,0,weatherlink.com 1.10,2013-04-27 02:27:00,
2013-04-26 22:43:00,66.9,60.0,30.21,NE,43,0.0,3.0,78,0.00,,,0.00,0,weatherlink.com 1.10,2013-04-27 02:43:00,
2013-04-26 22:58:00,66.8,60.0,30.21,NE,42,0.0,3.0,78,0.00,,,0.00,0,weatherlink.com 1.10,2013-04-27 02:58:00,
2013-04-26 23:13:00,66.4,60.0,30.21,NE,42,0.0,1.0,79,0.00,,,0.00,0,weatherlink.com 1.10,2013-04-27 03:13:00,
2013-04-26 23:28:00,66.4,60.0,30.21,NE,42,0.0,1.0,79,0.00,,,0.00,0,weatherlink.com 1.10,2013-04-27 03:28:00,
2013-04-26 23:43:00,66.1,59.0,30.20,NE,42,0.0,1.0,79,0.00,,,0.00,0,weatherlink.com 1.10,2013-04-27 03:43:00,
2013-04-26 23:58:00,66.0,60.0,30.20,NE,42,0.0,2.0,80,0.00,,,0.00,0,weatherlink.com 1.10,2013-04-27 03:58:00,